Location: St. Louis
(38.6270°N, 90.1994°W)
Time: 10:34:37
(UTC-06:00)

A-11 Canister half - Pass Details

Date: 15 December 2021
Orbit: 1524 x 1684 km, 47.3° (Epoch: 25 January)

Event Time Altitude Azimuth Distance (km) Brightness Sun altitude
Rises 20:36:04 0° 208° (SSW) 4,834 11.8 -45.0°
Reaches altitude 10° 20:39:20 10° 202° (SSW) 3,870 11.2 -45.7°
Enters shadow 20:41:14 17° 197° (SSW) 3,347 10.8 -46.0°
Maximum altitude 20:48:34 45° 134° (SE) 2,164 - -47.5°
Drops below altitude 10° 20:57:57 10° 66° (ENE) 3,950 - -49.3°
Sets 21:01:19 0° 61° (ENE) 4,942 - -49.9°
